Home   Weather   Windsor   Past weeks

Flag for Canada Past Weather in Windsor, Ontario, Canada — Yesterday and Last 2 Weeks

Now
61 °F

Clear.


Feels Like: 61 °F
Forecast: 60 / 78 °F
Wind: 6 mph from North

Location: Windsor Weather Station

Current Time: Jul 25, 2017 at 2:52:10 am

Latest Report: Jul 25, 2017 at 2:00 am


Visibility: 15 mi

Pressure: 30.13 "Hg

Humidity: 77%

Dew Point: 54 °F

Location of WindsorLocation

Past Weather in Windsor — Graph

°F

Windsor Temperature Yesterday

Maximum temperature yesterday: 73 °F (at 5:00 pm)
Minimum temperature yesterday: 64 °F (at 11:00 pm)
Average temperature yesterday: 68 °F

High & Low Weather Summary for the Past Weeks

 TemperatureHumidityPressure
High90 °F (Jul 19, 4:00 pm)100% (Jul 10, 11:00 pm)30.12 "Hg (Jul 10, 11:00 pm)
Low61 °F (Jul 17, 3:00 am)47% (Jul 14, 8:00 pm)29.70 "Hg (Jul 22, 6:22 pm)
Average74 °F80%29.94 "Hg
* Reported Jul 10 1:00 am — Jul 25 1:00 am, Windsor. Weather by CustomWeather, © 2017

Note: Actual official high and low records may vary slightly from our data, if they occured in-between our weather recording intervals... More about our weather records

Advertising

Windsor Weather History for the Previous 24 Hours

Scroll right to see more
 ConditionsComfort  
Time TempWeatherWind HumidityBarometerVisibility
1:00 am
Tue, Jul 25
63 °FClear.9 mph77%30.12 "Hg15 mi
12:00 am63 °FPassing clouds.7 mph73%30.10 "Hg15 mi
11:00 pm
Mon, Jul 24
64 °FClear.7 mph68%30.09 "Hg15 mi
10:00 pm66 °FClear.9 mph64%30.07 "Hg15 mi
9:00 pm66 °FPassing clouds.9 mph64%30.05 "Hg15 mi
8:00 pm70 °FPassing clouds.10 mph57%30.03 "Hg15 mi
7:00 pm72 °FPassing clouds.15 mph50%30.02 "Hg15 mi
6:00 pm72 °FScattered clouds.14 mph53%30.01 "Hg15 mi
5:00 pm73 °FBroken clouds.16 mph53%29.99 "Hg15 mi
4:00 pm70 °FPartly sunny.10 mph64%29.98 "Hg15 mi
3:00 pm68 °FBroken clouds.10 mph73%29.97 "Hg15 mi
2:27 pm68 °FPartly sunny.10 mph69%29.97 "Hg15 mi
2:00 pm68 °FPartly sunny.14 mph69%29.96 "Hg15 mi
1:00 pm68 °FOvercast.16 mph69%29.95 "Hg10 mi
12:00 pm68 °FMore clouds than sun.14 mph69%29.94 "Hg10 mi
11:00 am68 °FBroken clouds.15 mph69%29.91 "Hg12 mi
10:00 am68 °FPartly sunny.15 mph69%29.90 "Hg12 mi
9:00 am66 °FBroken clouds.13 mph78%29.89 "Hg10 mi
8:00 am66 °FPartly sunny.10 mph83%29.86 "Hg12 mi
7:00 am66 °FPassing clouds.6 mph88%29.84 "Hg12 mi
6:00 am66 °FPassing clouds.7 mph88%29.82 "Hg12 mi
5:00 am66 °FPassing clouds.6 mph88%29.80 "Hg12 mi
4:00 am68 °FClear.5 mph83%29.78 "Hg12 mi
3:00 am68 °FClear.6 mph83%29.78 "Hg12 mi
2:00 am66 °FPassing clouds.3 mph94%29.79 "Hg12 mi
Weather by CustomWeather, © 2017

See weather overviewHow to use our weather pages